{"data":{"norad_id":62872,"intl_designator":"2025-022U","name":"STARLINK-32849","alt_names":[],"object_type":"PAYLOAD","status":"ACTIVE","operator":null,"country":"US","launch_date":"2025-02-01","launch_site_code":"AFWTR","launch_vehicle":null,"mission":null,"orbit_class":"UNKNOWN","rcs_meters":null,"size_class":null,"mass_kg":null,"dimensions":null,"purposes":["comms"],"wikipedia_slug":null,"has_3d_model":false,"image_url":null,"decayed_at":null,"tle_current":{"epoch":"2026-05-25T03:32:25.937952Z","epoch_age_seconds":72385,"freshness":"FRESH","line1":"1 62872U 25022U   26145.14752243  .00023823  00000+0  73293-3 0  9996","line2":"2 62872  53.1596 134.6531 0001088 125.7112 234.3991 15.33568620 73601","mean_motion":15.3356862,"eccentricity":0.0001088,"inclination_deg":53.1596,"raan_deg":134.6531,"arg_perigee_deg":125.7112,"mean_anomaly_deg":234.3991,"bstar":0.00073293,"rev_number":7360,"period_min":93.898634936857,"perigee_km":464.43084065124,"apogee_km":465.91994542797,"semimajor_km":6843.3123930396,"source":"CELESTRAK","updated_at":"2026-05-25T13:38:19.787200Z"}}}